Regional Weather Roundup
Issued by NWS

Home | Current Version | Previous Version | Text Only | Print | Product List | Glossary On
Versions: 1 2 3 4 5 6 7 8 9 10 11 12 13 14 15 16 17 18 19 20 21 22 23 24 25 26 27 28 29 30 31 32 33 34 35 36 37 38 39 40 41 42 43 44 45 46 47 48 49 50
000
ASCA42 TJSJ 242110
RWRPR
PUERTO RICO/U.S. VIRGIN ISLANDS HOURLY WEATHER ROUNDUP
NATIONAL WEATHER SERVICE SAN JUAN PR
500 PM AST TUE APR 24 2018

PRZ001>002-007>008-010-242200-
PUERTO RICO

CITY           SKY/WX    TMP DP  RH WIND       PRES   REMARKS
SAN JUAN LMM   MOSUNNY   81  70  69 E18       29.99S
AGUADILLA      CLOUDY    79  66  65 E16       29.99F
CEIBA          MOSUNNY   82  73  74 MISG      30.01F
$$

VIZ001>002-242200-
U.S. VIRGIN ISLANDS

CITY           SKY/WX    TMP DP  RH WIND       PRES   REMARKS
CHARLOTTE AMA  SUNNY     84  70  61 NE9G17    29.99S
CHRISTIANSTED  MOSUNNY   84  70  61 NE14      29.99S
$$

HOURLY WEATHER ROUNDUP FOR THE NEWS MEDIA

CITY           SKY/WX    TMP DP  RH WIND       PRES   REMARKS
NEW YORK       CLOUDY    58  45  62 SE16      30.27F
NEWARK         CLOUDY    60  44  55 SE8G16    30.26F
CHICAGO        FAIR      63  47  55 NE10      29.97F
HARTFORD       FAIR      57  37  47 S14       30.33S
BOSTON         CLOUDY    62  39  42 S21       30.27S
DALLAS         FAIR      82  50  32 CALM      30.01F
PHILADELPHIA   CLOUDY    62  45  53 SE13G22   30.20F
LOS ANGELES    PTSUNNY   62  52  69 W13       30.03F
WASHINGTON DC  LGT RAIN  56  54  93 E9        30.08F


USA.gov is the U.S. government's official web portal to all federal, state and local government web resources and services.